Eastsound, WA
on Wednesday, January 16, 2013

Wednesday
Previous Day Next Day
Daily Summary
 ActualAverage (KBLI)Record (KBLI)
Temperature
Mean Temperature °F 39°F  
Max Temperature 39°F 46°F 58°F (1958)
Min Temperature 35°F 33°F 9°F (1950)
Degree Days
Heating Degree Days 28 26  
Month to date heating degree days 422  
Cooling Degree Days 0 0  
Month to date cooling degree days 0  
Year to date cooling degree days 0  
Moisture
Dew Point 32°F   
Average Humidity 80    
Maximum Humidity 93    
Minimum Humidity 75    
Precipitation
Precipitation 0.00 in 0.16 in 1.28 in (1975)
Month to date precipitation 2.46  
Year to date precipitation 2.46  
Wind
Wind Speed 1 mph   
Max Wind Speed 6 mph   
Max Gust Speed mph   
Visibility 10 miles   
Events     

Key: T is trace of precipitation, MM is missing value
Source: NWS Daily Summary
Time(PST)TemperatureDew PointHumidity Pressure Visibility Wind DirectionWind SpeedGust SpeedPrecipitationEvents Conditions
12:15 AM 37.4°F 33.8°F 87% 30.67 in 10.0 miles Calm Calm - N/A   Overcast
12:35 AM 37.4°F 33.8°F 87% 30.67 in 10.0 miles Calm Calm - N/A   Overcast
1:15 AM 37.4°F 33.8°F 87% 30.67 in 10.0 miles Calm Calm - N/A   Overcast
1:35 AM 37.4°F 35.6°F 93% 30.67 in 10.0 miles Calm Calm - N/A   Overcast
2:15 AM 39.2°F 35.6°F 87% 30.68 in 10.0 miles Calm Calm - N/A   Overcast
2:55 AM 39.2°F 35.6°F 87% 30.68 in 10.0 miles Calm Calm - N/A   Overcast
3:15 AM 37.4°F 33.8°F 87% 30.68 in 10.0 miles Calm Calm - N/A   Overcast
3:35 AM 37.4°F 33.8°F 87% 30.67 in 10.0 miles Calm Calm - N/A   Overcast
3:55 AM 37.4°F 33.8°F 87% 30.67 in 10.0 miles Calm Calm - N/A   Overcast
4:15 AM 37.4°F 33.8°F 87% 30.67 in 10.0 miles Calm Calm - N/A   Overcast
4:35 AM 37.4°F 32.0°F 81% 30.66 in 10.0 miles Calm Calm - N/A   Overcast
4:55 AM 37.4°F 32.0°F 81% 30.65 in 10.0 miles Calm Calm - N/A   Overcast
5:15 AM 39.2°F 32.0°F 75% 30.65 in 10.0 miles Calm Calm - N/A   Overcast
5:55 AM 37.4°F 32.0°F 81% 30.64 in 10.0 miles Calm Calm - N/A   Overcast
6:15 AM 37.4°F 32.0°F 81% 30.63 in 10.0 miles Calm Calm - N/A   Overcast
6:35 AM 37.4°F 32.0°F 81% 30.63 in 10.0 miles North - - N/A   Overcast
7:15 AM 37.4°F 32.0°F 81% 30.63 in 10.0 miles Calm Calm - N/A   Overcast
7:55 AM 37.4°F 32.0°F 81% 30.64 in 10.0 miles Calm Calm - N/A   Overcast
8:15 AM 37.4°F 30.2°F 75% 30.64 in 10.0 miles East 3.5 mph - N/A   Overcast
8:35 AM 37.4°F 30.2°F 75% 30.64 in 10.0 miles Calm Calm - N/A   Overcast
8:55 AM 37.4°F 32.0°F 81% 30.64 in 10.0 miles Calm Calm - N/A   Overcast
9:15 AM 39.2°F 32.0°F 75% 30.64 in 10.0 miles Calm Calm - N/A   Overcast
9:35 AM 39.2°F 32.0°F 75% 30.64 in 10.0 miles East 4.6 mph - N/A   Overcast
9:55 AM 39.2°F 32.0°F 75% 30.64 in 10.0 miles Calm Calm - N/A   Overcast
10:15 AM 39.2°F 32.0°F 75% 30.64 in 10.0 miles North - - N/A   Overcast
10:35 AM 39.2°F 32.0°F 75% 30.64 in 10.0 miles NE 3.5 mph - N/A   Overcast
10:55 AM 39.2°F 32.0°F 75% 30.63 in 10.0 miles Calm Calm - N/A   Overcast
11:15 AM 39.2°F 32.0°F 75% 30.63 in 10.0 miles NNE 3.5 mph - N/A   Overcast
11:35 AM 39.2°F 32.0°F 75% 30.63 in 10.0 miles NE 3.5 mph - N/A   Mostly Cloudy
11:55 AM 39.2°F 32.0°F 75% 30.62 in 10.0 miles North 4.6 mph - N/A   Mostly Cloudy
12:15 PM 39.2°F 32.0°F 75% 30.61 in 10.0 miles Calm Calm - N/A   Mostly Cloudy
12:35 PM 39.2°F 32.0°F 75% 30.61 in 10.0 miles Calm Calm - N/A   Partly Cloudy
12:55 PM 39.2°F 32.0°F 75% 30.60 in 10.0 miles NNE 5.8 mph - N/A   Clear
1:35 PM 39.2°F 32.0°F 75% 30.59 in 10.0 miles NE 3.5 mph - N/A   Scattered Clouds
1:55 PM 39.2°F 32.0°F 75% 30.59 in 10.0 miles Calm Calm - N/A   Partly Cloudy
2:15 PM 39.2°F 32.0°F 75% 30.59 in 10.0 miles NNE 4.6 mph - N/A   Clear
2:55 PM 39.2°F 32.0°F 75% 30.58 in 10.0 miles Calm Calm - N/A   Clear
3:15 PM 39.2°F 32.0°F 75% 30.58 in 10.0 miles NNE 4.6 mph - N/A   Clear
3:35 PM 39.2°F 32.0°F 75% 30.58 in 10.0 miles North 4.6 mph - N/A   Clear
3:55 PM 39.2°F 32.0°F 75% 30.58 in 10.0 miles North 4.6 mph - N/A   Partly Cloudy
4:15 PM 39.2°F 32.0°F 75% 30.57 in 10.0 miles North 4.6 mph - N/A   Scattered Clouds
4:35 PM 37.4°F 32.0°F 81% 30.58 in 10.0 miles North 4.6 mph - N/A   Partly Cloudy
4:55 PM 37.4°F 32.0°F 81% 30.58 in 10.0 miles North 3.5 mph - N/A   Partly Cloudy
5:15 PM 37.4°F 32.0°F 81% 30.58 in 10.0 miles North 3.5 mph - N/A   Clear
5:35 PM 37.4°F 32.0°F 81% 30.57 in 10.0 miles North 3.5 mph - N/A   Scattered Clouds
5:55 PM 37.4°F 32.0°F 81% 30.57 in 10.0 miles NNE 5.8 mph - N/A   Mostly Cloudy
6:15 PM 37.4°F 32.0°F 81% 30.57 in 10.0 miles North 3.5 mph - N/A   Mostly Cloudy
6:35 PM 37.4°F 32.0°F 81% 30.57 in 10.0 miles North 4.6 mph - N/A   Mostly Cloudy
6:55 PM 37.4°F 32.0°F 81% 30.57 in 10.0 miles North 4.6 mph - N/A   Mostly Cloudy
7:15 PM 37.4°F 32.0°F 81% 30.56 in 10.0 miles North 5.8 mph - N/A   Overcast
7:55 PM 37.4°F 32.0°F 81% 30.55 in 10.0 miles North 5.8 mph - N/A   Clear
8:15 PM 35.6°F 32.0°F 87% 30.55 in 10.0 miles North 3.5 mph - N/A   Clear
8:35 PM 37.4°F 32.0°F 81% 30.55 in 10.0 miles Calm Calm - N/A   Clear
8:55 PM 37.4°F 32.0°F 81% 30.54 in 10.0 miles North 4.6 mph - N/A   Clear
9:15 PM 37.4°F 32.0°F 81% 30.54 in 10.0 miles North 4.6 mph - N/A   Clear
9:35 PM 37.4°F 32.0°F 81% 30.55 in 10.0 miles North 5.8 mph - N/A   Clear
9:55 PM 37.4°F 32.0°F 81% 30.54 in 10.0 miles Calm Calm - N/A   Clear
10:15 PM 37.4°F 32.0°F 81% 30.53 in 10.0 miles North 3.5 mph - N/A   Clear
10:35 PM 37.4°F 32.0°F 81% 30.53 in 10.0 miles North 3.5 mph - N/A   Clear
10:55 PM 37.4°F 32.0°F 81% 30.53 in 10.0 miles North 4.6 mph - N/A   Clear
11:15 PM 37.4°F 32.0°F 81% 30.54 in 10.0 miles Calm Calm - N/A   Clear
11:35 PM 37.4°F 32.0°F 81% 30.53 in 10.0 miles North 4.6 mph - N/A   Clear
11:55 PM 37.4°F 32.0°F 81% 30.53 in 10.0 miles North 5.8 mph - N/A   Clear
Moon Phase
Jan. 16 Jan. 18 Jan. 26 Feb. 03 Feb. 10
Sunrise:07:58 AM (PST) Moon Rise:10:05 AM (PST)
Sunset:04:45 PM (PST) Moon Set:11:17 PM (PST)

Copyright © 2014 The Weather Underground, Inc.